Tracking 35274 objects as of 12-Sep-2026
HD Live streaming from Space Station
objects crossing your sky now

STARLINK-5956

Track STARLINK-5956 now!
10-day predictions
STARLINK-5956 is classified as:


NORAD ID: 55994
Int'l Code: 2023-042J
Launch date: March 24, 2022
Source: United States (US)
Launch site: AIR FORCE EASTERN TEST RANGE (AFETR)
Your satellite tracking list
Your tracking list is empty




NASA's NSSDC Master Catalog

Two Line Element Set (TLE):
1 55994U 23042J   26254.54961256  .00000187  00000-0  16324-4 0  9996
2 55994  43.0033  90.0273 0001789 264.7114  95.3533 15.27577137191293
Source of the keplerian elements: AFSPC